START_TIME,STEP,MOV.,M6,t_acc.,M7,t_acc.,M19,t_acc.,H36,t_acc.
1979-07-28 18:00:26.270 ,0,1,0.,12.0,0.,12.0,0.,12.0,0.,12.0
1979-07-28 18:00:38.270 ,0,1,0.,12.0,0.,12.0,0.,12.0,0.,12.0
1979-07-28 18:00:50.270 ,3,1,0.,12.0,0.,12.0,0.,12.0,0.,12.0
1979-07-28 18:01:02.270 ,3,1,0.,12.0,0.,12.0,0.,12.0,0.,12.0
1979-07-28 18:01:14.270 ,7,1,0.,12.0,0.,12.0,0.,12.0,0.,12.0
1979-07-28 18:01:26.270 ,7,1,0.,12.0,0.,12.0,0.,12.0,0.,12.0
1979-07-28 18:01:38.270 ,4,1,0.,12.0,0.,12.0,0.,12.0,0.,12.0
1979-07-28 18:01:50.270 ,4,1,0.,12.0,0.,12.0,0.,12.0,0.,12.0
1979-07-28 18:02:02.270 ,0,1,0.,12.0,0.,12.0,0.,12.0,0.,12.0
1979-07-28 18:02:14.270 ,0,1,0.,12.0,0.,12.0,0.,12.0,0.,12.0
1979-07-28 18:02:26.270 ,3,1,0.,12.0,0.,12.0,0.,12.0,0.,12.0
1979-07-28 18:02:38.270 ,3,1,0.,12.0,0.,12.0,0.,12.0,0.,12.0
1979-07-28 18:02:50.270 ,7,1,0.,12.0,0.,12.0,0.,12.0,0.,12.0
1979-07-28 18:03:02.270 ,7,1,0.,12.0,0.,12.0,0.,12.0,0.,12.0
1979-07-28 18:03:14.270 ,4,1,0.,12.0,0.,12.0,0.,12.0,0.,12.0
1979-07-28 18:03:26.270 ,4,1,0.,12.0,0.,12.0,0.,12.0,0.,12.0
1979-07-28 18:03:38.270 ,0,1,0.,12.0,0.,12.0,0.,12.0,0.,12.0
1979-07-28 18:03:50.270 ,0,1,0.,12.0,0.,12.0,0.,12.0,0.,12.0
1979-07-28 18:04:02.270 ,3,1,0.,12.0,0.,12.0,0.,12.0,0.,12.0
1979-07-28 18:04:14.270 ,3,1,0.,12.0,0.,12.0,0.,12.0,0.,12.0
1979-07-28 18:04:26.270 ,7,1,0.,12.0,0.,12.0,0.,12.0,0.,12.0
1979-07-28 18:04:38.270 ,7,1,0.,12.0,0.,12.0,0.,12.0,0.,12.0
1979-07-28 18:04:50.270 ,4,1,0.,12.0,0.,12.0,0.,12.0,0.,12.0
1979-07-28 18:05:02.270 ,4,1,0.,12.0,0.,12.0,0.,12.0,0.,12.0
1979-07-28 18:05:14.270 ,0,1,0.,12.0,0.,12.0,0.,12.0,0.,12.0
1979-07-28 18:05:26.270 ,0,1,0.,12.0,0.,12.0,0.,12.0,0.,12.0
1979-07-28 18:05:38.270 ,0,0,0.,12.0,0.,12.0,0.,12.0,0.,12.0
1979-07-28 18:05:50.270 ,0,0,0.,12.0,0.,12.0,0.,12.0,0.,12.0
1979-07-28 18:06:02.270 ,0,0,0.,12.0,0.,12.0,0.,12.0,0.,12.0
1979-07-28 18:06:14.270 ,0,0,0.,12.0,0.,12.0,0.,12.0,0.,12.0
1979-07-28 18:06:26.270 ,5,1,0.,12.0,0.,12.0,0.,12.0,0.,12.0
1979-07-28 18:06:38.270 ,5,1,0.,12.0,0.,12.0,0.,12.0,0.,12.0
1979-07-28 18:06:50.270 ,5,0,0.,12.0,0.,12.0,0.,12.0,0.,12.0
1979-07-28 18:07:02.270 ,5,0,0.,12.0,0.,12.0,0.,12.0,0.,12.0
1979-07-28 18:07:14.270 ,4,1,0.,12.0,0.,12.0,0.,12.0,0.,12.0
1979-07-28 18:07:26.270 ,4,1,0.,12.0,0.,12.0,0.,12.0,0.,12.0
1979-07-28 18:07:38.270 ,4,0,0.,12.0,0.,12.0,0.,12.0,0.,12.0
1979-07-28 18:07:50.270 ,4,0,0.,12.0,0.,12.0,0.,12.0,0.,12.0
1979-07-28 18:08:02.270 ,3,1,0.,12.0,0.,12.0,0.,12.0,0.,12.0
1979-07-28 18:08:14.270 ,3,1,0.,12.0,0.,12.0,0.,12.0,0.,12.0
1979-07-28 18:08:26.270 ,3,0,0.,12.0,0.,12.0,0.,12.0,0.,12.0
1979-07-28 18:08:38.270 ,3,0,0.,12.0,0.,12.0,0.,12.0,0.,12.0
1979-07-28 18:08:50.270 ,2,1,0.,12.0,0.,12.0,0.,12.0,0.,12.0
1979-07-28 18:09:02.270 ,2,1,0.,12.0,0.,12.0,0.,12.0,0.,12.0
1979-07-28 18:09:14.270 ,2,0,0.,12.0,0.,12.0,0.,12.0,0.,12.0
1979-07-28 18:09:26.270 ,2,0,0.,12.0,0.,12.0,0.,12.0,0.,12.0
1979-07-28 18:09:38.270 ,1,1,0.,12.0,0.,12.0,0.,12.0,0.,12.0
1979-07-28 18:09:50.270 ,1,1,0.,12.0,0.,12.0,0.,12.0,0.,12.0
1979-07-28 18:10:02.270 ,1,0,0.,12.0,0.,12.0,0.,12.0,0.,12.0
1979-07-28 18:10:14.270 ,1,0,0.,12.0,0.,12.0,0.,12.0,0.,12.0
1979-07-28 18:10:26.270 ,0,1,0.,12.0,0.,12.0,0.,12.0,0.,12.0
1979-07-28 18:10:38.270 ,0,1,0.,12.0,0.,12.0,0.,12.0,0.,12.0
1979-07-28 18:10:50.270 ,0,0,0.,12.0,0.,12.0,0.,12.0,0.,12.0
1979-07-28 18:11:02.270 ,0,0,0.,12.0,0.,12.0,0.,12.0,0.,12.0
1979-07-28 18:11:14.270 ,0,1,0.,12.0,0.,12.0,0.,12.0,0.,12.0
1979-07-28 18:11:26.270 ,0,1,0.,12.0,0.,12.0,0.,12.0,0.,12.0
1979-07-28 18:11:38.270 ,0,0,0.,12.0,0.,12.0,0.,12.0,0.,12.0
1979-07-28 18:11:50.270 ,0,0,0.,12.0,0.,12.0,0.,12.0,0.,12.0
1979-07-28 18:12:02.270 ,1,1,0.,12.0,0.,12.0,0.,12.0,0.,12.0
1979-07-28 18:12:14.270 ,1,1,0.,12.0,0.,12.0,0.,12.0,0.,12.0
1979-07-28 18:12:26.270 ,1,0,0.,12.0,0.,12.0,0.,12.0,0.,12.0
1979-07-28 18:12:38.270 ,1,0,0.,12.0,0.,12.0,0.,12.0,0.,12.0
1979-07-28 18:12:50.270 ,2,1,0.,12.0,0.,12.0,0.,12.0,0.,12.0
1979-07-28 18:13:02.270 ,2,1,0.,12.0,0.,12.0,0.,12.0,0.,12.0
1979-07-28 18:13:14.270 ,2,0,0.,12.0,0.,12.0,0.,12.0,0.,12.0
1979-07-28 18:13:26.270 ,2,0,0.,12.0,0.,12.0,0.,12.0,0.,12.0
1979-07-28 18:13:38.270 ,3,1,0.,12.0,0.,12.0,0.,12.0,0.,12.0
1979-07-28 18:13:50.270 ,3,1,0.,12.0,0.,12.0,0.,12.0,0.,12.0
1979-07-28 18:14:02.270 ,3,0,0.,12.0,0.,12.0,0.,12.0,0.,12.0
1979-07-28 18:14:14.270 ,3,0,0.,12.0,0.,12.0,0.,12.0,0.,12.0
1979-07-28 18:14:26.270 ,4,1,0.,12.0,0.,12.0,0.,12.0,0.,12.0
1979-07-28 18:14:38.270 ,4,1,0.,12.0,0.,12.0,0.,12.0,0.,12.0
1979-07-28 18:14:50.270 ,4,0,0.,12.0,0.,12.0,0.,12.0,0.,12.0
1979-07-28 18:15:02.270 ,4,0,0.,12.0,0.,12.0,0.,12.0,0.,12.0
1979-07-28 18:15:14.270 ,5,1,0.,12.0,0.,12.0,0.,12.0,0.,12.0
1979-07-28 18:15:26.270 ,5,1,0.,12.0,0.,12.0,0.,12.0,0.,12.0
1979-07-28 18:15:38.270 ,5,0,0.,12.0,0.,12.0,0.,12.0,0.,12.0
1979-07-28 18:15:50.270 ,5,0,0.,12.0,0.,12.0,0.,12.0,0.,12.0
1979-07-28 18:16:02.270 ,6,1,0.,12.0,0.,12.0,0.,12.0,0.,12.0
1979-07-28 18:16:14.270 ,6,1,0.,12.0,0.,12.0,0.,12.0,0.,12.0
1979-07-28 18:16:26.270 ,6,0,0.,12.0,0.,12.0,0.,12.0,0.,12.0
1979-07-28 18:16:38.270 ,6,0,0.,12.0,0.,12.0,0.,12.0,0.,12.0
1979-07-28 18:16:50.270 ,7,1,0.,12.0,0.,12.0,0.,12.0,0.,12.0
1979-07-28 18:17:02.270 ,7,1,0.,12.0,0.,12.0,0.,12.0,0.,12.0
1979-07-28 18:17:14.270 ,7,0,0.,12.0,0.,12.0,0.,12.0,0.,12.0
1979-07-28 18:17:26.270 ,7,0,0.,12.0,0.,12.0,0.,12.0,0.,12.0
1979-07-28 18:17:38.270 ,7,1,0.,12.0,0.,12.0,0.,12.0,0.,12.0
1979-07-28 18:17:50.270 ,7,1,0.,12.0,0.,12.0,0.,12.0,0.,12.0
1979-07-28 18:18:02.270 ,7,0,0.,12.0,0.,12.0,0.,12.0,0.,12.0
1979-07-28 18:18:14.270 ,7,0,0.,12.0,0.,12.0,0.,12.0,0.,12.0
1979-07-28 18:18:26.270 ,6,1,0.,12.0,0.,12.0,0.,12.0,0.,12.0
1979-07-28 18:18:38.270 ,6,1,0.,12.0,0.,12.0,0.,12.0,0.,12.0
1979-07-28 18:18:50.270 ,6,0,0.,12.0,0.,12.0,0.,12.0,0.,12.0
1979-07-28 18:19:02.270 ,6,0,0.,12.0,0.,12.0,0.,12.0,0.,12.0
1979-07-28 18:19:14.270 ,5,1,1.,12.0,0.,12.0,0.,12.0,0.,12.0
1979-07-28 18:19:26.270 ,5,1,0.,12.0,0.,12.0,0.,12.0,0.,12.0
1979-07-28 18:19:38.270 ,5,0,0.,12.0,0.,12.0,0.,12.0,0.,12.0
1979-07-28 18:19:50.270 ,5,0,0.,12.0,0.,12.0,0.,12.0,0.,12.0
1979-07-28 18:20:02.270 ,4,1,0.,12.0,0.,12.0,0.,12.0,0.,12.0
1979-07-28 18:20:14.270 ,4,1,0.,12.0,0.,12.0,0.,12.0,0.,12.0
1979-07-28 18:20:26.270 ,4,0,0.,12.0,0.,12.0,0.,12.0,0.,12.0
1979-07-28 18:20:38.270 ,4,0,0.,12.0,0.,12.0,0.,12.0,0.,12.0
1979-07-28 18:20:50.270 ,3,1,0.,12.0,0.,12.0,0.,12.0,0.,12.0
1979-07-28 18:21:02.270 ,3,1,0.,12.0,0.,12.0,0.,12.0,0.,12.0
1979-07-28 18:21:14.270 ,3,0,0.,12.0,0.,12.0,0.,12.0,0.,12.0
1979-07-28 18:21:26.270 ,3,0,0.,12.0,0.,12.0,0.,12.0,0.,12.0
1979-07-28 18:21:38.270 ,2,1,0.,12.0,0.,12.0,0.,12.0,0.,12.0
1979-07-28 18:21:50.270 ,2,1,0.,12.0,0.,12.0,0.,12.0,0.,12.0
1979-07-28 18:22:02.270 ,2,0,0.,12.0,0.,12.0,0.,12.0,0.,12.0
1979-07-28 18:22:14.270 ,2,0,0.,12.0,0.,12.0,0.,12.0,0.,12.0
1979-07-28 18:22:26.270 ,1,1,0.,12.0,0.,12.0,0.,12.0,0.,12.0
1979-07-28 18:22:38.270 ,1,1,0.,12.0,0.,12.0,0.,12.0,0.,12.0
1979-07-28 18:22:50.270 ,1,0,0.,12.0,0.,12.0,0.,12.0,0.,12.0
1979-07-28 18:23:02.270 ,1,0,0.,12.0,0.,12.0,0.,12.0,0.,12.0
1979-07-28 18:23:14.270 ,0,1,0.,12.0,0.,12.0,0.,12.0,0.,12.0
1979-07-28 18:23:26.270 ,0,1,0.,12.0,0.,12.0,0.,12.0,0.,12.0
1979-07-28 18:23:38.270 ,0,0,0.,12.0,0.,12.0,0.,12.0,0.,12.0
1979-07-28 18:23:50.270 ,0,0,0.,12.0,0.,12.0,0.,12.0,0.,12.0
1979-07-28 18:24:02.270 ,0,1,0.,12.0,0.,12.0,0.,12.0,0.,12.0
1979-07-28 18:24:14.270 ,0,1,0.,12.0,0.,12.0,0.,12.0,0.,12.0
1979-07-28 18:24:26.270 ,0,0,0.,12.0,0.,12.0,0.,12.0,0.,12.0
1979-07-28 18:24:38.270 ,0,0,0.,12.0,0.,12.0,0.,12.0,0.,12.0
1979-07-28 18:24:50.270 ,1,1,0.,12.0,0.,12.0,0.,12.0,0.,12.0
1979-07-28 18:25:02.270 ,1,1,0.,12.0,0.,12.0,0.,12.0,0.,12.0
1979-07-28 18:25:14.270 ,1,0,0.,12.0,0.,12.0,0.,12.0,0.,12.0
1979-07-28 18:25:26.270 ,1,0,0.,12.0,0.,12.0,0.,12.0,0.,12.0
1979-07-28 18:25:38.270 ,2,1,0.,12.0,0.,12.0,0.,12.0,0.,12.0
1979-07-28 18:25:50.270 ,2,1,0.,12.0,0.,12.0,0.,12.0,0.,12.0
1979-07-28 18:26:02.270 ,2,0,0.,12.0,0.,12.0,0.,12.0,0.,12.0
1979-07-28 18:26:14.270 ,2,0,0.,12.0,0.,12.0,0.,12.0,0.,12.0
1979-07-28 18:26:26.270 ,3,1,0.,12.0,0.,12.0,0.,12.0,0.,12.0
1979-07-28 18:26:38.270 ,3,1,0.,12.0,0.,12.0,0.,12.0,0.,12.0
1979-07-28 18:26:50.270 ,3,0,0.,12.0,0.,12.0,0.,12.0,0.,12.0
1979-07-28 18:27:02.270 ,3,0,0.,12.0,0.,12.0,0.,12.0,0.,12.0
1979-07-28 18:27:14.270 ,4,1,0.,12.0,0.,12.0,0.,12.0,0.,12.0
1979-07-28 18:27:26.270 ,4,1,0.,12.0,0.,12.0,0.,12.0,0.,12.0
1979-07-28 18:27:38.270 ,4,0,0.,12.0,0.,12.0,0.,12.0,0.,12.0
1979-07-28 18:27:50.270 ,4,0,0.,12.0,0.,12.0,0.,12.0,0.,12.0
1979-07-28 18:28:02.270 ,5,1,0.,12.0,0.,12.0,0.,12.0,0.,12.0
1979-07-28 18:28:14.270 ,5,1,0.,12.0,0.,12.0,0.,12.0,0.,12.0
1979-07-28 18:28:26.270 ,5,0,0.,12.0,0.,12.0,0.,12.0,0.,12.0
1979-07-28 18:28:38.270 ,5,0,0.,12.0,0.,12.0,0.,12.0,0.,12.0
1979-07-28 18:28:50.270 ,6,1,0.,12.0,0.,12.0,0.,12.0,0.,12.0
1979-07-28 18:29:02.270 ,6,1,0.,12.0,0.,12.0,0.,12.0,0.,12.0
1979-07-28 18:29:14.270 ,6,0,0.,12.0,0.,12.0,0.,12.0,0.,12.0
1979-07-28 18:29:26.270 ,6,0,0.,12.0,0.,12.0,0.,12.0,0.,12.0
1979-07-28 18:29:38.270 ,7,1,0.,12.0,0.,12.0,0.,12.0,0.,12.0
1979-07-28 18:29:50.270 ,7,1,0.,12.0,0.,12.0,0.,12.0,0.,12.0
1979-07-28 18:30:02.270 ,7,0,0.,12.0,0.,12.0,0.,12.0,0.,12.0
1979-07-28 18:30:14.270 ,7,0,0.,12.0,0.,12.0,0.,12.0,0.,12.0
1979-07-28 18:30:26.270 ,7,1,0.,12.0,0.,12.0,0.,12.0,0.,12.0
1979-07-28 18:30:38.270 ,7,1,0.,12.0,0.,12.0,0.,12.0,0.,12.0
1979-07-28 18:30:50.270 ,7,0,0.,12.0,0.,12.0,0.,12.0,0.,12.0
1979-07-28 18:31:02.270 ,7,0,0.,12.0,0.,12.0,0.,12.0,0.,12.0
1979-07-28 18:31:14.270 ,6,1,0.,12.0,0.,12.0,0.,12.0,0.,12.0
1979-07-28 18:31:26.270 ,6,1,0.,12.0,0.,12.0,0.,12.0,0.,12.0
1979-07-28 18:31:38.270 ,6,0,0.,12.0,0.,12.0,0.,12.0,0.,12.0
1979-07-28 18:31:50.270 ,6,0,0.,12.0,0.,12.0,0.,12.0,0.,12.0
1979-07-28 18:32:02.270 ,5,1,0.,12.0,0.,12.0,0.,12.0,0.,12.0
1979-07-28 18:32:14.270 ,5,1,0.,12.0,0.,12.0,0.,12.0,0.,12.0
1979-07-28 18:32:26.270 ,5,0,0.,12.0,0.,12.0,0.,12.0,0.,12.0
1979-07-28 18:32:38.270 ,5,0,0.,12.0,0.,12.0,0.,12.0,0.,12.0
1979-07-28 18:32:50.270 ,4,1,0.,12.0,0.,12.0,0.,12.0,0.,12.0
1979-07-28 18:33:02.270 ,4,1,0.,12.0,0.,12.0,0.,12.0,0.,12.0
1979-07-28 18:33:14.270 ,4,0,0.,12.0,0.,12.0,0.,12.0,0.,12.0
1979-07-28 18:33:26.270 ,4,0,0.,12.0,0.,12.0,0.,12.0,0.,12.0
1979-07-28 18:33:38.270 ,3,1,0.,12.0,0.,12.0,0.,12.0,0.,12.0
1979-07-28 18:33:50.270 ,3,1,0.,12.0,0.,12.0,0.,12.0,0.,12.0
1979-07-28 18:34:02.270 ,3,0,0.,12.0,0.,12.0,0.,12.0,0.,12.0
1979-07-28 18:34:14.270 ,3,0,0.,12.0,0.,12.0,0.,12.0,0.,12.0
1979-07-28 18:34:26.270 ,2,1,0.,12.0,0.,12.0,0.,12.0,0.,12.0
1979-07-28 18:34:38.270 ,2,1,0.,12.0,0.,12.0,0.,12.0,0.,12.0
1979-07-28 18:34:50.270 ,2,0,0.,12.0,0.,12.0,0.,12.0,0.,12.0
1979-07-28 18:35:02.270 ,2,0,,0,,0,,0,,0
1979-07-28 18:35:14.270 ,1,1,0.,12.0,0.,12.0,0.,12.0,0.,12.0
1979-07-28 18:35:26.270 ,1,1,0.,12.0,0.,12.0,0.,12.0,0.,12.0
1979-07-28 18:35:38.270 ,1,0,0.,12.0,0.,12.0,0.,12.0,0.,12.0
1979-07-28 18:35:50.270 ,1,0,0.,12.0,0.,12.0,0.,12.0,0.,12.0
1979-07-28 18:36:02.270 ,0,1,0.,12.0,0.,12.0,0.,12.0,0.,12.0
1979-07-28 18:36:14.270 ,0,1,0.,12.0,0.,12.0,0.,12.0,0.,12.0
1979-07-28 18:36:26.270 ,0,0,0.,12.0,0.,12.0,0.,12.0,0.,12.0
1979-07-28 18:36:38.270 ,0,0,0.,12.0,0.,12.0,0.,12.0,0.,12.0
1979-07-28 18:36:50.270 ,0,1,0.,12.0,0.,12.0,0.,12.0,0.,12.0
1979-07-28 18:37:02.270 ,0,1,0.,12.0,0.,12.0,0.,12.0,0.,12.0
1979-07-28 18:37:14.270 ,0,0,0.,12.0,0.,12.0,0.,12.0,0.,12.0
1979-07-28 18:37:26.270 ,0,0,0.,12.0,0.,12.0,0.,12.0,0.,12.0
1979-07-28 18:37:38.270 ,1,1,0.,12.0,0.,12.0,0.,12.0,0.,12.0
1979-07-28 18:37:50.270 ,1,1,0.,12.0,0.,12.0,0.,12.0,0.,12.0
1979-07-28 18:38:02.270 ,1,0,0.,12.0,0.,12.0,0.,12.0,0.,12.0
1979-07-28 18:38:14.270 ,1,0,0.,12.0,0.,12.0,0.,12.0,0.,12.0
1979-07-28 18:38:26.270 ,2,1,0.,12.0,0.,12.0,0.,12.0,0.,12.0
1979-07-28 18:38:38.270 ,2,1,0.,12.0,0.,12.0,0.,12.0,0.,12.0
1979-07-28 18:38:50.270 ,2,0,0.,12.0,0.,12.0,0.,12.0,0.,12.0
1979-07-28 18:39:02.270 ,2,0,0.,12.0,0.,12.0,0.,12.0,0.,12.0
1979-07-28 18:39:14.270 ,3,1,0.,12.0,0.,12.0,0.,12.0,0.,12.0
1979-07-28 18:39:26.270 ,3,1,0.,12.0,0.,12.0,0.,12.0,0.,12.0
1979-07-28 18:39:38.270 ,3,0,0.,12.0,0.,12.0,0.,12.0,0.,12.0
1979-07-28 18:39:50.270 ,3,0,0.,12.0,0.,12.0,0.,12.0,0.,12.0
1979-07-28 18:40:02.270 ,4,1,0.,12.0,0.,12.0,0.,12.0,0.,12.0
1979-07-28 18:40:14.270 ,4,1,0.,12.0,0.,12.0,0.,12.0,0.,12.0
1979-07-28 18:40:26.270 ,4,0,0.,12.0,0.,12.0,0.,12.0,0.,12.0
1979-07-28 18:40:38.270 ,4,0,0.,12.0,0.,12.0,0.,12.0,0.,12.0
1979-07-28 18:40:50.270 ,5,1,0.,12.0,0.,12.0,0.,12.0,0.,12.0
1979-07-28 18:41:02.270 ,5,1,0.,12.0,0.,12.0,0.,12.0,0.,12.0
1979-07-28 18:41:14.270 ,5,0,0.,12.0,0.,12.0,0.,12.0,0.,12.0
1979-07-28 18:41:26.270 ,5,0,0.,12.0,0.,12.0,0.,12.0,0.,12.0
1979-07-28 18:41:38.270 ,6,1,0.,12.0,0.,12.0,0.,12.0,0.,12.0
1979-07-28 18:41:50.270 ,6,1,0.,12.0,0.,12.0,0.,12.0,0.,12.0
1979-07-28 18:42:02.270 ,6,0,0.,12.0,0.,12.0,0.,12.0,0.,12.0
1979-07-28 18:42:14.270 ,6,0,0.,12.0,0.,12.0,0.,12.0,0.,12.0
1979-07-28 18:42:26.270 ,7,0,0.,12.0,0.,12.0,0.,12.0,0.,12.0
1979-07-28 18:42:38.270 ,7,0,0.,12.0,0.,12.0,0.,12.0,0.,12.0
1979-07-28 18:42:50.270 ,7,0,0.,12.0,0.,12.0,0.,12.0,0.,12.0
1979-07-28 18:43:02.270 ,7,0,0.,12.0,0.,12.0,0.,12.0,0.,12.0
1979-07-28 18:43:14.260 ,4,1,0.,12.0,0.,12.0,0.,12.0,0.,12.0
1979-07-28 18:43:26.260 ,4,1,0.,12.0,0.,12.0,0.,12.0,0.,12.0
1979-07-28 18:43:38.260 ,0,1,0.,12.0,0.,12.0,0.,12.0,0.,12.0
1979-07-28 18:43:50.260 ,0,1,0.,12.0,0.,12.0,0.,12.0,0.,12.0
1979-07-28 18:44:02.260 ,3,1,0.,12.0,0.,12.0,0.,12.0,0.,12.0
1979-07-28 18:44:14.260 ,3,1,0.,12.0,0.,12.0,0.,12.0,0.,12.0
1979-07-28 18:44:26.260 ,7,1,0.,12.0,0.,12.0,0.,12.0,0.,12.0
1979-07-28 18:44:38.260 ,7,1,0.,12.0,0.,12.0,0.,12.0,0.,12.0
1979-07-28 18:44:50.260 ,4,1,0.,12.0,0.,12.0,0.,12.0,0.,12.0
1979-07-28 18:45:02.260 ,4,1,0.,12.0,0.,12.0,0.,12.0,0.,12.0
1979-07-28 18:45:14.260 ,0,1,0.,12.0,0.,12.0,0.,12.0,0.,12.0
1979-07-28 18:45:26.260 ,0,1,0.,12.0,0.,12.0,0.,12.0,0.,12.0
1979-07-28 18:45:38.260 ,3,1,0.,12.0,0.,12.0,0.,12.0,0.,12.0
1979-07-28 18:45:50.260 ,3,1,0.,12.0,0.,12.0,0.,12.0,0.,12.0
1979-07-28 18:46:02.260 ,7,1,0.,12.0,0.,12.0,0.,12.0,0.,12.0
1979-07-28 18:46:14.260 ,7,1,0.,12.0,0.,12.0,0.,12.0,0.,12.0
1979-07-28 18:46:26.260 ,4,1,0.,12.0,0.,12.0,0.,12.0,0.,12.0
1979-07-28 18:46:38.260 ,4,1,0.,12.0,0.,12.0,0.,12.0,0.,12.0
1979-07-28 18:46:50.260 ,0,1,0.,12.0,0.,12.0,0.,12.0,0.,12.0
1979-07-28 18:47:02.260 ,0,1,0.,12.0,0.,12.0,0.,12.0,0.,12.0
1979-07-28 18:47:14.260 ,3,1,0.,12.0,0.,12.0,0.,12.0,0.,12.0
1979-07-28 18:47:26.260 ,3,1,0.,12.0,0.,12.0,0.,12.0,0.,12.0
1979-07-28 18:47:38.260 ,7,1,0.,12.0,0.,12.0,0.,12.0,0.,12.0
1979-07-28 18:47:50.260 ,7,1,0.,12.0,0.,12.0,0.,12.0,0.,12.0
1979-07-28 18:48:02.260 ,4,1,0.,12.0,0.,12.0,0.,12.0,0.,12.0
1979-07-28 18:48:14.260 ,4,1,0.,12.0,0.,12.0,0.,12.0,0.,12.0
1979-07-28 18:48:26.260 ,0,1,0.,12.0,0.,12.0,0.,12.0,0.,12.0
1979-07-28 18:48:38.260 ,0,1,0.,12.0,0.,12.0,0.,12.0,0.,12.0
1979-07-28 18:48:50.260 ,3,1,0.,12.0,0.,12.0,0.,12.0,0.,12.0
1979-07-28 18:49:02.260 ,3,1,0.,12.0,0.,12.0,0.,12.0,0.,12.0
1979-07-28 18:49:14.260 ,7,1,0.,12.0,0.,12.0,0.,12.0,0.,12.0
1979-07-28 18:49:26.260 ,7,1,0.,12.0,0.,12.0,0.,12.0,0.,12.0
1979-07-28 18:49:38.260 ,4,1,0.,12.0,0.,12.0,0.,12.0,0.,12.0
1979-07-28 18:49:50.260 ,4,1,0.,12.0,0.,12.0,0.,12.0,0.,12.0
1979-07-28 18:50:02.260 ,0,1,0.,12.0,0.,12.0,0.,12.0,0.,12.0
1979-07-28 18:50:14.260 ,0,1,0.,12.0,0.,12.0,0.,12.0,0.,12.0
1979-07-28 18:50:26.260 ,3,1,0.,12.0,0.,12.0,0.,12.0,0.,12.0
1979-07-28 18:50:38.260 ,3,1,0.,12.0,0.,12.0,0.,12.0,0.,12.0
1979-07-28 18:50:50.260 ,7,1,0.,12.0,0.,12.0,0.,12.0,0.,12.0
1979-07-28 18:51:02.260 ,7,1,0.,12.0,0.,12.0,0.,12.0,0.,12.0
1979-07-28 18:51:14.260 ,4,1,0.,12.0,0.,12.0,0.,12.0,0.,12.0
1979-07-28 18:51:26.260 ,4,1,0.,12.0,0.,12.0,0.,12.0,0.,12.0
1979-07-28 18:51:38.260 ,0,1,0.,12.0,0.,12.0,0.,12.0,0.,12.0
1979-07-28 18:51:50.260 ,0,1,0.,12.0,0.,12.0,0.,12.0,0.,12.0
1979-07-28 18:52:02.260 ,3,1,0.,12.0,0.,12.0,0.,12.0,0.,12.0
1979-07-28 18:52:14.260 ,3,1,0.,12.0,0.,12.0,0.,12.0,0.,12.0
1979-07-28 18:52:26.260 ,7,1,0.,12.0,0.,12.0,0.,12.0,0.,12.0
1979-07-28 18:52:38.260 ,7,1,0.,12.0,0.,12.0,0.,12.0,0.,12.0
1979-07-28 18:52:50.260 ,4,1,0.,12.0,0.,12.0,0.,12.0,0.,12.0
1979-07-28 18:53:02.260 ,4,1,0.,12.0,0.,12.0,0.,12.0,0.,12.0
1979-07-28 18:53:14.260 ,0,1,0.,12.0,0.,12.0,0.,12.0,0.,12.0
1979-07-28 18:53:26.260 ,0,1,0.,12.0,0.,12.0,0.,12.0,0.,12.0
1979-07-28 18:53:38.260 ,0,0,0.,12.0,0.,12.0,0.,12.0,0.,12.0
1979-07-28 18:53:50.260 ,0,0,0.,12.0,0.,12.0,0.,12.0,0.,12.0
1979-07-28 18:54:02.260 ,0,0,0.,12.0,0.,12.0,0.,12.0,0.,12.0
1979-07-28 18:54:14.260 ,0,0,0.,12.0,0.,12.0,0.,12.0,0.,12.0
1979-07-28 18:54:26.260 ,5,1,0.,12.0,0.,12.0,0.,12.0,0.,12.0
1979-07-28 18:54:38.260 ,5,1,0.,12.0,0.,12.0,0.,12.0,0.,12.0
1979-07-28 18:54:50.260 ,5,0,0.,12.0,0.,12.0,0.,12.0,0.,12.0
1979-07-28 18:55:02.260 ,5,0,0.,12.0,0.,12.0,0.,12.0,0.,12.0
1979-07-28 18:55:14.260 ,4,1,0.,12.0,0.,12.0,0.,12.0,0.,12.0
1979-07-28 18:55:26.260 ,4,1,0.,12.0,0.,12.0,0.,12.0,0.,12.0
1979-07-28 18:55:38.260 ,4,0,0.,12.0,0.,12.0,0.,12.0,0.,12.0
1979-07-28 18:55:50.260 ,4,0,0.,12.0,0.,12.0,0.,12.0,0.,12.0
1979-07-28 18:56:02.260 ,3,1,0.,12.0,0.,12.0,0.,12.0,0.,12.0
1979-07-28 18:56:14.260 ,3,1,0.,12.0,0.,12.0,0.,12.0,0.,12.0
1979-07-28 18:56:26.260 ,3,0,0.,12.0,0.,12.0,0.,12.0,0.,12.0
1979-07-28 18:56:38.260 ,3,0,0.,12.0,0.,12.0,0.,12.0,0.,12.0
1979-07-28 18:56:50.260 ,2,1,0.,12.0,0.,12.0,0.,12.0,0.,12.0
1979-07-28 18:57:02.260 ,2,1,0.,12.0,0.,12.0,0.,12.0,0.,12.0
1979-07-28 18:57:14.260 ,2,0,0.,12.0,0.,12.0,0.,12.0,0.,12.0
1979-07-28 18:57:26.260 ,2,0,0.,12.0,0.,12.0,0.,12.0,0.,12.0
1979-07-28 18:57:38.260 ,1,1,0.,12.0,0.,12.0,0.,12.0,0.,12.0
1979-07-28 18:57:50.260 ,1,1,0.,12.0,0.,12.0,0.,12.0,0.,12.0
1979-07-28 18:58:02.260 ,1,0,0.,12.0,0.,12.0,0.,12.0,0.,12.0
1979-07-28 18:58:14.260 ,1,0,0.,12.0,0.,12.0,0.,12.0,0.,12.0
1979-07-28 18:58:26.260 ,0,1,0.,12.0,0.,12.0,0.,12.0,0.,12.0
1979-07-28 18:58:38.260 ,0,1,0.,12.0,0.,12.0,0.,12.0,0.,12.0
1979-07-28 18:58:50.260 ,0,0,0.,12.0,0.,12.0,0.,12.0,0.,12.0
1979-07-28 18:59:02.260 ,0,0,0.,12.0,0.,12.0,0.,12.0,0.,12.0
1979-07-28 18:59:14.260 ,0,1,0.,12.0,0.,12.0,0.,12.0,0.,12.0
1979-07-28 18:59:26.260 ,0,1,0.,12.0,0.,12.0,0.,12.0,0.,12.0
1979-07-28 18:59:38.260 ,0,0,0.,12.0,0.,12.0,0.,12.0,0.,12.0
1979-07-28 18:59:50.260 ,0,0,0.,12.0,0.,12.0,0.,12.0,0.,12.0
1979-07-28 19:00:02.260 ,1,1,0.,12.0,0.,12.0,0.,12.0,0.,12.0
1979-07-28 19:00:14.260 ,1,1,0.,12.0,0.,12.0,0.,12.0,0.,12.0
1979-07-28 19:00:26.260 ,1,0,0.,12.0,0.,12.0,0.,12.0,0.,12.0
1979-07-28 19:00:38.260 ,1,0,0.,12.0,0.,12.0,0.,12.0,0.,12.0
1979-07-28 19:00:50.260 ,2,1,0.,12.0,0.,12.0,0.,12.0,0.,12.0
1979-07-28 19:01:02.260 ,2,1,0.,12.0,0.,12.0,0.,12.0,0.,12.0
1979-07-28 19:01:14.260 ,2,0,0.,12.0,0.,12.0,0.,12.0,0.,12.0
1979-07-28 19:01:26.260 ,2,0,0.,12.0,0.,12.0,0.,12.0,0.,12.0
1979-07-28 19:01:38.260 ,3,1,0.,12.0,0.,12.0,0.,12.0,0.,12.0
1979-07-28 19:01:50.260 ,3,1,0.,12.0,0.,12.0,0.,12.0,0.,12.0
1979-07-28 19:02:02.260 ,3,0,0.,12.0,0.,12.0,0.,12.0,0.,12.0
1979-07-28 19:02:14.260 ,3,0,0.,12.0,0.,12.0,0.,12.0,0.,12.0
1979-07-28 19:02:26.260 ,4,1,0.,12.0,0.,12.0,0.,12.0,0.,12.0
1979-07-28 19:02:38.260 ,4,1,0.,12.0,0.,12.0,0.,12.0,0.,12.0
1979-07-28 19:02:50.260 ,4,0,0.,12.0,0.,12.0,0.,12.0,0.,12.0
1979-07-28 19:03:02.260 ,4,0,0.,12.0,0.,12.0,0.,12.0,0.,12.0
1979-07-28 19:03:14.260 ,5,1,0.,12.0,0.,12.0,0.,12.0,0.,12.0
1979-07-28 19:03:26.260 ,5,1,0.,12.0,0.,12.0,0.,12.0,0.,12.0
1979-07-28 19:03:38.260 ,5,0,0.,12.0,0.,12.0,0.,12.0,0.,12.0
1979-07-28 19:03:50.260 ,5,0,0.,12.0,0.,12.0,0.,12.0,0.,12.0
1979-07-28 19:04:02.260 ,6,1,0.,12.0,0.,12.0,0.,12.0,0.,12.0
1979-07-28 19:04:14.260 ,6,1,0.,12.0,0.,12.0,0.,12.0,0.,12.0
1979-07-28 19:04:26.260 ,6,0,0.,12.0,0.,12.0,0.,12.0,0.,12.0
1979-07-28 19:04:38.260 ,6,0,0.,12.0,0.,12.0,0.,12.0,0.,12.0
1979-07-28 19:04:50.260 ,7,1,0.,12.0,0.,12.0,0.,12.0,0.,12.0
1979-07-28 19:05:02.260 ,7,1,0.,12.0,0.,12.0,0.,12.0,0.,12.0
1979-07-28 19:05:14.260 ,7,0,0.,12.0,0.,12.0,0.,12.0,0.,12.0
1979-07-28 19:05:26.260 ,7,0,0.,12.0,0.,12.0,0.,12.0,0.,12.0
1979-07-28 19:05:38.260 ,7,1,0.,12.0,0.,12.0,0.,12.0,0.,12.0
1979-07-28 19:05:50.260 ,7,1,0.,12.0,0.,12.0,0.,12.0,0.,12.0
1979-07-28 19:06:02.260 ,7,0,0.,12.0,0.,12.0,0.,12.0,0.,12.0
1979-07-28 19:06:14.260 ,7,0,0.,12.0,0.,12.0,0.,12.0,0.,12.0
1979-07-28 19:06:26.260 ,6,1,0.,12.0,0.,12.0,0.,12.0,0.,12.0
1979-07-28 19:06:38.260 ,6,1,0.,12.0,0.,12.0,0.,12.0,0.,12.0
1979-07-28 19:06:50.260 ,6,0,0.,12.0,0.,12.0,0.,12.0,0.,12.0
1979-07-28 19:07:02.260 ,6,0,0.,12.0,0.,12.0,0.,12.0,0.,12.0
1979-07-28 19:07:14.260 ,5,1,0.,12.0,0.,12.0,0.,12.0,0.,12.0
1979-07-28 19:07:26.260 ,5,1,0.,12.0,0.,12.0,0.,12.0,0.,12.0
1979-07-28 19:07:38.260 ,5,0,0.,12.0,0.,12.0,0.,12.0,0.,12.0
1979-07-28 19:07:50.260 ,5,0,0.,12.0,0.,12.0,0.,12.0,0.,12.0
1979-07-28 19:08:02.260 ,4,1,0.,12.0,0.,12.0,0.,12.0,0.,12.0
1979-07-28 19:08:14.260 ,4,1,0.,12.0,0.,12.0,0.,12.0,0.,12.0
1979-07-28 19:08:26.260 ,4,0,0.,12.0,0.,12.0,0.,12.0,0.,12.0
1979-07-28 19:08:38.260 ,4,0,0.,12.0,0.,12.0,0.,12.0,0.,12.0
1979-07-28 19:08:50.260 ,3,1,0.,12.0,0.,12.0,0.,12.0,0.,12.0
1979-07-28 19:09:02.260 ,3,1,0.,12.0,0.,12.0,0.,12.0,0.,12.0
1979-07-28 19:09:14.260 ,3,0,0.,12.0,0.,12.0,0.,12.0,0.,12.0
1979-07-28 19:09:26.260 ,3,0,0.,12.0,0.,12.0,0.,12.0,0.,12.0
1979-07-28 19:09:38.260 ,2,1,0.,12.0,0.,12.0,0.,12.0,0.,12.0
1979-07-28 19:09:50.260 ,2,1,0.,12.0,0.,12.0,0.,12.0,0.,12.0
1979-07-28 19:10:02.260 ,2,0,0.,12.0,0.,12.0,0.,12.0,0.,12.0
1979-07-28 19:10:14.260 ,2,0,0.,12.0,0.,12.0,0.,12.0,0.,12.0
1979-07-28 19:10:26.260 ,1,1,0.,12.0,0.,12.0,0.,12.0,0.,12.0
1979-07-28 19:10:38.260 ,1,1,0.,12.0,0.,12.0,0.,12.0,0.,12.0
1979-07-28 19:10:50.260 ,1,0,0.,12.0,0.,12.0,0.,12.0,0.,12.0
1979-07-28 19:11:02.260 ,1,0,0.,12.0,0.,12.0,0.,12.0,0.,12.0
1979-07-28 19:11:14.260 ,0,1,0.,12.0,0.,12.0,0.,12.0,0.,12.0
1979-07-28 19:11:26.260 ,0,1,0.,12.0,0.,12.0,0.,12.0,0.,12.0
1979-07-28 19:11:38.260 ,0,0,0.,12.0,0.,12.0,0.,12.0,0.,12.0
1979-07-28 19:11:50.260 ,0,0,0.,12.0,0.,12.0,0.,12.0,0.,12.0
1979-07-28 19:12:02.260 ,0,1,0.,12.0,0.,12.0,0.,12.0,0.,12.0
1979-07-28 19:12:14.260 ,0,1,0.,12.0,0.,12.0,0.,12.0,0.,12.0
1979-07-28 19:12:26.260 ,0,0,0.,12.0,0.,12.0,0.,12.0,0.,12.0
1979-07-28 19:12:38.260 ,0,0,0.,12.0,0.,12.0,0.,12.0,0.,12.0
1979-07-28 19:12:50.260 ,1,1,0.,12.0,0.,12.0,0.,12.0,0.,12.0
1979-07-28 19:13:02.260 ,1,1,0.,12.0,0.,12.0,0.,12.0,0.,12.0
1979-07-28 19:13:14.260 ,1,0,0.,12.0,0.,12.0,0.,12.0,0.,12.0
1979-07-28 19:13:26.260 ,1,0,0.,12.0,0.,12.0,0.,12.0,0.,12.0
1979-07-28 19:13:38.260 ,2,1,0.,12.0,0.,12.0,0.,12.0,0.,12.0
1979-07-28 19:13:50.260 ,2,1,0.,12.0,0.,12.0,0.,12.0,0.,12.0
1979-07-28 19:14:02.260 ,2,0,0.,12.0,0.,12.0,0.,12.0,0.,12.0
1979-07-28 19:14:14.260 ,2,0,0.,12.0,0.,12.0,0.,12.0,0.,12.0
1979-07-28 19:14:26.260 ,3,1,0.,12.0,0.,12.0,0.,12.0,0.,12.0
1979-07-28 19:14:38.260 ,3,1,0.,12.0,0.,12.0,0.,12.0,0.,12.0
1979-07-28 19:14:50.260 ,3,0,0.,12.0,0.,12.0,0.,12.0,0.,12.0
1979-07-28 19:15:02.260 ,3,0,0.,12.0,0.,12.0,0.,12.0,0.,12.0
1979-07-28 19:15:14.260 ,4,1,0.,12.0,0.,12.0,0.,12.0,0.,12.0
1979-07-28 19:15:26.260 ,4,1,0.,12.0,0.,12.0,0.,12.0,0.,12.0
1979-07-28 19:15:38.260 ,4,0,0.,12.0,0.,12.0,0.,12.0,0.,12.0
1979-07-28 19:15:50.260 ,4,0,0.,12.0,0.,12.0,0.,12.0,0.,12.0
1979-07-28 19:16:02.260 ,5,1,0.,12.0,0.,12.0,0.,12.0,0.,12.0
1979-07-28 19:16:14.260 ,5,1,0.,12.0,0.,12.0,0.,12.0,0.,12.0
1979-07-28 19:16:26.260 ,5,0,0.,12.0,0.,12.0,0.,12.0,0.,12.0
1979-07-28 19:16:38.260 ,5,0,0.,12.0,0.,12.0,0.,12.0,0.,12.0
1979-07-28 19:16:50.260 ,6,1,0.,12.0,0.,12.0,0.,12.0,0.,12.0
1979-07-28 19:17:02.260 ,6,1,0.,12.0,0.,12.0,0.,12.0,0.,12.0
1979-07-28 19:17:14.260 ,6,0,0.,12.0,0.,12.0,0.,12.0,0.,12.0
1979-07-28 19:17:26.260 ,6,0,0.,12.0,0.,12.0,0.,12.0,0.,12.0